STARLINK-6165, 57127

Orbit data source: Space-Track

STARLINK-6165, 57127 is a payload satellite owned by SpaceX/Seattle (US) in LEO that was launched on Fri, 23 Jun 2023 UTC via an FALCON 9 launch vehicle from the Air Force Eastern Test Range (AFETR). Payload-class satellites include a variety of spacecraft equipped with specific instruments for various scientific and technological missions. These include communications satellites like Starlink; space stations such as the ISS; scientific satellites like the Hubble; Earth observation satellites from companies like Planet Labs, Umbra, and HawkEye 360; GPS; miniature CubeSats for education and research; and military/defense satellites.

Loading next visibility...
Identifier
57127, 2023-090AC
Orbit
LEO
Country
Flag of USUS
Related business
Manufacturer
SpaceX/Seattle
Mission
Operational Commercial Communications
Bus & Motor
STARLINK, Unknown motor
Mass
305 kg wet, ~290 kg dry
Launch date (UTC)
2023-06-23 (3 years ago)
Launch vehicle
FALCON 9
Launch site
Air Force Eastern Test Range (AFETR)
Object type
Payload
Rocket body
Debris
Shape & HBR
Box + 1 Pan, 10.1 m
Radar Cross Section
11.087 m², Large (>1 m²)

Expand to show TLE details & history
Last TLE update: 2 days ago

TLE from 2 days ago
0 STARLINK-6165
1 57127U 23090AC  26171.40548907  .00003764  00000-0  14606-3 0  9990
2 57127  43.0055  61.2724 0001129 266.4957  93.5766 15.27616796165856
Epoch: 2026-06-20T09:43Z
TLE epoch observation values (Epoch: 2026-06-20T09:43:54.255Z)
Latitude
Longitude
6.67576°
Altitude
482.763 km
Speed
7.626 km/s
True Right ascension
04h 05m 05s
True Declination
0° 00' 00"
Sunlit
Object was in daylight at epoch
Visualization orbit readout
Latitude
Unknown
Longitude
Unknown
Altitude
Unknown
Speed
Unknown
Apparent Right ascension
Unknown
Apparent Declination
Unknown
Sunlit
N/A
Visualization observer readout
Local Sidereal Time
21:51:59
Azimuth
Unknown
Elevation
Unknown
Doppler factor
Unknown
Orbital elements
Apogee altitude
485.658 km
Perigee altitude
484.108 km
Semi-major axis
6,863.02 km
Eccentricity
0.00011
Inclination
43.0055°
RAAN
61.2724°
Arg. of periapsis
266.4957°
True anomaly
93.58951°
Mean anomaly
93.5766°
Eccentric anomaly
93.58306°
Mean motion
3.81742 °/min
Orbital period
94.3 mins
BSTAR
0.00014606
Loading maneuver chart data...
Computing Atmospheric mass density...

Documentation

Showing up to 5 results
|